Location: Brno
(49.2000°N, 16.6330°E)
Time: 03:50:11
(UTC+01:00)

Daily predictions for brighter satellites

Satellite Brightness Start Highest point End
(mag) Time Altitude Azimuth Time Altitude Azimuth Time Altitude Azimuth
USA 267 3.9 03:35:30 10° ENE 03:40:25 52° E 03:40:25 52° E
SJ 16-02 4.1 03:56:31 14° SE 03:56:31 14° SE 03:57:12 10° SE
Lacrosse 5 rocket 4.0 04:02:33 19° ESE 04:02:33 19° ESE 04:03:53 10° ESE
Cosmos 1697 Rocket 3.7 04:03:41 43° ESE 04:03:41 43° ESE 04:07:36 10° SE
Cosmos 2082 Rocket 3.7 04:01:07 22° SSE 04:03:50 33° ESE 04:08:54 10° NE
Cosmos 1833 Rocket 3.7 04:15:01 29° SSE 04:17:16 42° ESE 04:22:33 10° NE
USA 234 3.3 04:12:47 10° SE 04:18:33 63° S 04:18:33 63° S
COSMO-SKYMED 1 4.0 04:19:01 10° SE 04:22:18 35° E 04:22:18 35° E
CZ-4B R/B 3.6 04:17:43 10° NNE 04:22:22 59° NE 04:22:22 59° NE
Cosmos 2360 Rocket 4.4 04:34:57 12° N 04:37:56 18° NE 04:41:39 10° ENE
Cosmos 1980 Rocket 2.4 04:39:47 56° N 04:40:52 69° ENE 04:46:32 10° SE
Cosmos 1125 Rocket 4.4 04:49:14 37° S 04:49:14 37° S 04:52:26 10° S
SeaSat 1 2.5 04:43:56 10° NNE 04:48:16 67° N 04:48:16 67° N
Meteor 2-4 Rocket 3.9 04:48:00 24° N 04:51:16 65° ENE 04:56:42 10° SSE
Cosmos 1536 4.0 05:00:18 10° SSE 05:04:10 44° E 05:08:02 10° NNE
Cosmos 44 Rocket 3.6 05:02:08 29° SSW 05:04:25 60° ESE 05:09:06 10° NE
Meteor 1-19 Rocket 4.2 05:03:04 34° NNW 05:05:42 73° W 05:11:35 10° S
SKYMED 2 3.4 05:06:41 10° S 05:10:56 74° WSW 05:10:56 74° WSW
Cosmos 2360 4.1 05:10:36 43° NW 05:12:35 78° WSW 05:18:17 10° SSE
IRS-1C Rocket 4.1 05:09:39 10° N 05:14:45 52° WNW 05:14:49 52° WNW
SL-16 R/B 3.0 05:11:08 19° NNW 05:15:00 49° NE 05:20:29 10° SE
Cosmos 2279 Rocket 4.0 05:14:45 25° NNW 05:18:15 54° W 05:24:16 10° SSW
Cosmos 540 Rocket 3.5 05:18:41 50° W 05:19:23 55° WNW 05:24:30 10° NNE
Cosmos 2322 Rocket 2.8 05:19:36 18° NNW 05:23:43 54° NE 05:29:17 10° SE
USA 267 3.4 05:18:37 10° ENE 05:25:00 58° NNW 05:27:46 34° W
ATLAS 5 CENTAUR R/B 3.8 05:23:31 17° NNW 05:25:35 20° NNE 05:29:52 10° ENE
CZ-2C R/B 2.9 05:21:08 10° NNE 05:26:04 59° E 05:30:46 10° S
Cosmos 1515 4.4 05:25:48 15° N 05:28:49 52° ENE 05:32:34 10° SSE
RESURS DK-1 2.3 05:28:34 57° W 05:28:56 60° WSW 05:32:59 10° SSE
SJ 16-02 3.1 05:33:35 18° SW 05:33:35 18° SW 05:35:11 10° SSW
Cosmos 2151 Rocket 3.4 05:27:13 10° SSW 05:31:36 77° W 05:36:03 10° N
CZ-4 R/B 4.3 05:31:16 10° NE 05:34:21 20° E 05:37:26 10° SE
Meteor 1-5 Rocket 4.3 05:28:58 10° S 05:34:25 73° E 05:39:46 10° NNE
COSMOS 2487 3.6 05:38:08 28° N 05:38:08 28° N 05:40:08 10° NNE
Lacrosse 5 rocket 2.9 05:38:16 23° SW 05:38:16 23° SW 05:41:43 10° S
Okean-O 2.6 05:35:53 10° N 05:40:17 61° WNW 05:44:39 10° SSW
Okean 2 Rocket 4.0 05:41:37 30° NW 05:41:37 30° NW 05:44:36 10° N
MSX 4.1 05:36:51 10° NNE 05:42:38 70° ESE 05:48:21 10° S
Cosmos 1697 Rocket 3.6 05:45:28 26° W 05:45:39 26° WSW 05:50:11 10° SSW
Cosmos 2082 Rocket 2.4 05:43:08 15° SW 05:47:46 48° NW 05:53:18 10° NNE
Okean 2 3.5 05:45:10 10° N 05:49:17 76° E 05:53:22 10° SSE
Cosmos 44 3.1 05:47:11 27° WSW 05:49:19 55° NW 05:53:41 10° NNE
Meteor 1-23 Rocket 4.1 05:44:34 10° NNW 05:50:08 65° W 05:55:37 10° S
Cosmos 1300 Rocket 3.4 05:45:54 10° SSW 05:50:12 78° W 05:54:33 10° N
Cosmos 1536 Rocket 3.9 05:48:54 29° NW 05:50:27 41° W 05:54:32 10° SSW
EO 1 Del DPAF 4.4 05:51:19 10° SSW 05:53:58 25° WSW 05:53:58 25° WSW
NOAA 6 4.2 05:51:16 10° N 05:56:10 47° WNW 06:01:03 10° SW
Cosmos 292 Rocket 4.3 05:55:01 20° WSW 05:57:42 35° WNW 06:02:06 10° N
COSMO-SKYMED 1 3.6 05:55:42 10° SSW 05:59:19 25° W 05:59:32 25° W
Meteor 2-11 Rocket 4.4 05:54:52 10° N 06:01:02 88° W 06:07:07 10° S
PAYLOAD A 4.2 05:55:56 10° N 06:01:14 55° WNW 06:06:30 10° SW
Cosmos 1833 Rocket 3.1 05:56:52 14° WSW 06:01:16 39° NW 06:06:32 10° NNE
Cosmos 2333 Rocket 4.3 05:58:01 10° N 06:02:09 19° NE 06:06:14 10° E
Cosmos 1025 Rocket 2.9 05:58:47 10° NNW 06:03:04 78° W 06:07:20 10° S
CZ-4B R/B 4.3 05:59:10 10° N 06:03:22 22° NW 06:04:15 21° WNW
IDEFIX/ARIANE 42P 2.7 05:59:48 10° N 06:04:50 52° WNW 06:09:53 10° SW
COSMOS 2428 4.3 06:00:23 10° NNW 06:05:19 29° NE 06:10:14 10° ESE
Cosmos 1437 Rocket 2.9 06:02:44 10° SSW 06:06:36 48° WNW 06:10:24 10° N
COSMOS 2441 4.3 06:04:31 10° N 06:09:24 75° WNW 06:14:12 10° SSW
Cosmos 1066 Rocket 4.2 06:08:10 10° N 06:13:34 81° E 06:18:56 10° SSE
Nadezhda 4 Rocket 4.1 06:09:23 10° SSW 06:15:19 49° WNW 06:21:16 10° N
Okean 1 Rocket 3.0 06:13:14 10° SSW 06:17:34 65° WNW 06:21:58 10° N
Cosmos 1975 3.5 06:14:21 10° S 06:18:15 56° E 06:22:11 10° NNE
Ariane Rocket 3.4 06:14:24 10° NNE 06:19:28 66° ESE 06:24:30 10° S
Cosmos 192 4.4 06:18:10 10° SSW 06:23:04 87° ESE 06:28:01 10° NNE
Cosmos 2360 Rocket 2.6 06:17:24 10° NNW 06:23:05 66° ENE 06:28:44 10° SE
Timation 2 Rocket 4.2 06:16:22 10° SW 06:23:15 76° WNW 06:30:10 10° NNE
Cosmos 1980 Rocket 3.4 06:21:36 16° WNW 06:24:20 22° W 06:28:36 10° SSW
SeaSat 1 3.8 06:22:21 10° N 06:25:49 19° NW 06:28:04 15° WNW
Meteor 1-11 Rocket 4.4 06:22:24 10° SW 06:27:42 33° WNW 06:32:59 10° N
S3M 4.1 06:27:01 10° N 06:33:13 80° E 06:39:26 10° SSE
Cosmos 1500 3.3 06:29:48 10° SSW 06:33:35 54° WNW 06:37:24 10° N
YAOGAN 1 3.4 06:30:32 10° NNE 06:34:48 54° E 06:39:03 10° S
Cosmos 1892 Rocket 3.6 06:30:26 10° N 06:34:53 89° W 06:39:16 10° S
Cosmos 2219 Rocket 3.7 06:30:09 10° NNW 06:35:07 30° NE 06:40:04 10° ESE
ERBS 4.0 06:34:13 13° NW 06:36:16 21° N 06:38:56 10° NE
IRAS Rocket 4.3 06:31:30 10° NNE 06:37:03 88° ESE 06:42:37 10° SSW
Cosmos 389 Rocket 3.7 06:34:50 10° S 06:38:20 48° E 06:41:51 10° NNE
CZ-4C R/B 2.2 06:34:03 10° SW 06:39:24 87° NW 06:45:39 10° NE
Cosmos 1536 4.2 06:37:54 10° WSW 06:40:50 19° WNW 06:43:47 10° NNW
Cosmos 1680 Rocket 4.0 06:35:50 10° S 06:40:58 65° ESE 06:46:10 10° NNE
Cosmos 773 Rocket 4.0 06:37:34 10° SW 06:42:37 57° WNW 06:47:44 10° NNE
Cosmos 2237 Rocket 4.0 06:40:25 10° N 06:44:52 23° NE 06:49:16 10° E
Thor Agena Rocket 4.3 06:40:53 10° SSW 06:45:20 31° W 06:49:52 10° NNW
Cosmos 44 Rocket 4.1 06:42:10 10° W 06:46:16 29° NW 06:50:27 10° NNE
Cosmos 1655 Rocket 4.0 06:42:48 10° S 06:49:02 82° W 06:55:23 10° N
Cosmos 1092 Rocket 4.4 06:46:36 10° SW 06:52:15 38° WNW 06:57:58 10° N
deb Kosmos-1763 4.2 06:49:01 10° SW 06:52:42 55° WNW 06:56:24 10° NNE
Cosmos 1371 Rocket 4.1 06:47:46 10° NNW 06:53:04 85° ENE 06:58:16 10° SSE
Helios 1B rocket 4.5 06:49:48 10° ESE 06:53:11 25° ENE 06:56:35 10° N
CSL-04 Debris 4.2 06:51:34 10° N 06:56:57 64° WNW 07:02:19 10° SSW
SL-16 R/B 3.0 06:53:56 10° NW 06:58:55 33° WSW 07:03:54 10° SSW
CZ-3B R/B 4.0 06:57:37 10° NW 06:59:25 26° NNE 07:03:04 10° ENE
Cosmos 1184 Rocket 4.1 06:58:41 10° NW 07:01:20 22° W 07:03:59 10° SW
GEOS 3 Rocket 3.9 06:56:07 10° NE 07:01:22 53° NW 07:06:35 10° WSW
Meteor 1-4 Rocket 3.7 06:59:30 10° SW 07:02:44 26° WNW 07:05:59 10° N
CZ-2C R/B 3.5 07:00:07 10° N 07:03:53 22° WNW 07:07:33 10° WSW
Cosmos 1602 Rocket 4.1 07:00:10 10° N 07:04:29 62° ENE 07:08:46 10° SSE
IRS-1A Rocket 4.3 07:01:23 10° NNE 07:06:56 87° WNW 07:12:30 10° SSW
Cosmos 2237 4.3 07:01:39 10° NNW 07:07:24 88° WSW 07:13:06 10° SSE
USA 267 3.8 07:01:18 10° ENE 07:07:26 45° N 07:13:34 10° WNW
Cosmos 2322 Rocket 3.2 07:02:42 10° NW 07:07:29 29° WSW 07:12:16 10° SSW
